Location: Byszew
(52.1813°N, 19.2693°E)
Time: 05:18:44
(UTC+00:00)

SPROUT - Pass Details

Date: 05 July 2022
Orbit: 588 x 598 km, 97.9° (Epoch: 18 August)

Event Time Altitude Azimuth Distance (km) Brightness Sun altitude
Exits shadow 00:57:32 - 245° (WSW) 2,046 ? -9.8°
Reaches altitude 10° 00:58:20 10° 255° (WSW) 1,920 ? -9.8°
Maximum altitude 00:59:42 11° 274° (W) 1,833 ? -9.7°
Drops below altitude 10° 01:01:04 10° 293° (WNW) 1,926 ? -9.5°
Sets 01:04:48 0° 328° (NNW) 2,838 ? -9.2°
